Flag for U.S.A. Weather past 2 weeks in Colorado Springs, Colorado, U.S.A.

Now
30 °F

Clear.


Feels Like: 22 °F
Forecast: 25 / 43 °F
Wind: 9 mph from Northeast

Location: City Of Colorado Springs Municipal Airport

Current Time: Mar 6, 2015 at 10:25:10 PM

Latest Report: Mar 6, 2015 at 9:54 PM


Visibility: 10 mi

Pressure: 30.34 "Hg

Humidity: 66%

Dew point: 20 °F

Location of Colorado SpringsLocation

Historic Weather in Colorado Springs — Graph

°F

Colorado Springs temperature yesterday

Maximum temperature yesterday: 34 °F (at 1:54 PM)
Minimum temperature yesterday: 0 °F (at 1:54 AM)
Average temperature yesterday: 20 °F

Past Weeks' High & Low Weather Summary

 TemperatureHumidityPressure
High60 °F (Feb 20, 12:54 PM)96% (Feb 21, 7:54 AM)30.66 "Hg (Feb 21, 7:54 AM)
Low-1 °F (Feb 28, 5:54 AM)14% (Feb 20, 12:54 PM)29.56 "Hg (Feb 20, 12:54 PM)
Average21 °F72%30.20 "Hg
* Reported Feb 19 8:54 PM — Mar 6 8:54 PM, Colorado Springs, Weather by CustomWeather, © 2015

Note: Actual official high and low records may vary slightly from our data, if they occured in-between our weather recording intervals... More about our weather records

Advertising

Colorado Springs weather history for previous 24 hours

 ConditionsComfort  
Time TempWeatherWind HumidityBarometerVisibility
8:54 PM
Fri, Mar 6
31 °FClear.5 mph67%30.35 "Hg10 mi
7:54 PM33 °FClear.3 mph61%30.38 "Hg10 mi
6:54 PM43 °FClear.5 mph38%30.35 "Hg10 mi
5:54 PM44 °FSunny.6 mph37%30.33 "Hg10 mi
4:54 PM46 °FPassing clouds.8 mph38%30.33 "Hg10 mi
3:54 PM49 °FSunny.13 mph29%30.29 "Hg10 mi
2:54 PM49 °FSunny.9 mph23%30.30 "Hg10 mi
1:54 PM49 °FSunny.6 mph26%30.32 "Hg10 mi
12:54 PM49 °FSunny.5 mph27%30.35 "Hg10 mi
11:54 AM47 °FSunny.5 mph26%30.38 "Hg10 mi
10:54 AM47 °FSunny.5 mph17%30.38 "Hg10 mi
9:54 AM45 °FSunny.3 mph23%30.38 "Hg10 mi
8:54 AM40 °FPassing clouds.8 mph32%30.41 "Hg10 mi
7:54 AM31 °FPassing clouds.9 mph47%30.44 "Hg10 mi
6:54 AM23 °FPassing clouds.9 mph57%30.44 "Hg10 mi
5:54 AM23 °FPassing clouds.8 mph57%30.40 "Hg10 mi
4:54 AM21 °FPassing clouds.10 mph62%30.40 "Hg10 mi
3:54 AM24 °FPassing clouds.8 mph55%30.37 "Hg10 mi
2:54 AM23 °FClear.9 mph57%30.38 "Hg10 mi
1:54 AM21 °FPassing clouds.7 mph68%30.40 "Hg10 mi
12:54 AM20 °FPassing clouds.8 mph71%30.41 "Hg10 mi
11:54 PM
Thu, Mar 5
21 °FClear.7 mph71%30.41 "Hg10 mi
10:54 PM23 °FClear.9 mph68%30.42 "Hg10 mi
Weather by CustomWeather, © 2015

See weather overviewHow to use our weather pages